Flag for Japan Weather past 2 weeks in Sapporo, Japan

Now
56 °F

Cool.


Feels Like: 53 °F
Forecast: 46 / 65 °F
Wind: 14 mph from Northwest

Location: Sapporo

Current Time: Apr 27, 2015 at 6:19:29 PM

Latest Report: Apr 27, 2015 at 5:00 PM


Visibility: N/A

Pressure: 29.80 "Hg

Humidity: 67%

Dew point: 46 °F

Location of SapporoLocation

Historic Weather in Sapporo — Graph

°F

Sapporo temperature yesterday

Maximum temperature yesterday: 69 °F (at 2:00 PM)
Minimum temperature yesterday: 48 °F (at 4:00 AM)
Average temperature yesterday: 59 °F

Past Weeks' High & Low Weather Summary

 TemperatureHumidityPressure
High75 °F (Apr 27, 2:00 PM)94% (Apr 20, 10:00 PM)30.48 "Hg (Apr 20, 10:00 PM)
Low37 °F (Apr 13, 5:00 AM)15% (Apr 23, 11:00 AM)29.44 "Hg (Apr 20, 11:00 PM)
Average49 °F60%29.89 "Hg
* Reported Apr 12 5:00 PM — Apr 27 5:00 PM, Sapporo, Weather by CustomWeather, © 2015

Note: Actual official high and low records may vary slightly from our data, if they occured in-between our weather recording intervals... More about our weather records

Advertising

Sapporo weather history for previous 24 hours

 ConditionsComfort  
Time TempWeatherWind HumidityBarometerVisibility
5:00 PM
Mon, Apr 27
56 °FCool.14 mph67%29.80 "HgN/A
4:00 PM62 °FRefreshingly cool.9 mph58%29.76 "HgN/A
3:00 PM73 °FPassing clouds.9 mph34%29.72 "Hg9 mi
2:00 PM75 °FMild.9 mph31%29.71 "HgN/A
1:00 PM74 °FMild.12 mph30%29.72 "HgN/A
12:00 PM74 °FSunny.7 mph30%29.73 "Hg9 mi
11:00 AM71 °FMild.2 mph32%29.75 "HgN/A
10:00 AM69 °FMild.5 mph36%29.75 "HgN/A
9:00 AM65 °FSunny.10 mph40%29.73 "Hg9 mi
8:00 AM60 °FRefreshingly cool.12 mph43%29.74 "HgN/A
7:00 AM56 °FRefreshingly cool.16 mph49%29.73 "HgN/A
5:00 AM52 °FCool.14 mph52%29.72 "HgN/A
4:00 AM52 °FCool.13 mph53%29.74 "HgN/A
3:00 AM52 °FOvercast.14 mph50%29.73 "Hg6 mi
2:00 AM53 °FCool.13 mph49%29.72 "HgN/A
1:00 AM54 °FCool.9 mph44%29.75 "HgN/A
12:00 AM61 °FRefreshingly cool.20 mph32%29.74 "HgN/A
11:00 PM
Sun, Apr 26
62 °FRefreshingly cool.14 mph31%29.75 "HgN/A
10:00 PM62 °FRefreshingly cool.15 mph28%29.76 "HgN/A
9:00 PM62 °FOvercast.10 mph25%29.77 "Hg6 mi
8:00 PM63 °FMild.6 mph25%29.78 "HgN/A
7:00 PM63 °FMild.3 mph24%29.76 "HgN/A
6:00 PM64 °FOvercast.8 mph23%29.75 "Hg9 mi
Weather by CustomWeather, © 2015

See weather overviewHow to use our weather pages